PRAETORIAN SDA_612

Last updated on Wed Aug 19 2026 00:03:42 GMT+0000 (Coordinated Universal Time)

1 65575U 25203L 26230.17214412 .00000152 00000+0 12392-3 0 9992 2 65575 81.3051 313.0358 0009654 31.3067 328.8663 13.85044830 47299
UTC large
Height (km)
Speed (km/s)
/
Latitude / Longitude
Inclination (degrees)
Orbital Period (minutes)
Azimuth
Elevation
Range (km)
Doppler Factor

Next 0 passes for location: London (51.5072 / 0.1276)

No passes found over London.
PRAETORIAN SDA_612